Location: *
(49.5667°N, 1.3667°W)
Time: 07:47:33
(UTC+00:00)

Cosmos 1939 Rocket - Pass Details

Date: 20 September 2019
Orbit: 534 x 583 km, 97.4° (Epoch: 13 October)

Event Time Altitude Azimuth Distance (km) Brightness Sun altitude
Rises 18:38:38 0° 157° (SSE) 2,675 6.0 -5.7°
Reaches altitude 10° 18:40:45 10° 154° (SSE) 1,787 5.1 -6.0°
Maximum altitude 18:44:34 63° 73° (ENE) 602 2.8 -6.6°
Drops below altitude 10° 18:48:24 10° 353° (N) 1,803 5.7 -7.2°
Sets 18:50:32 0° 350° (N) 2,702 6.6 -7.6°
